,,,PA_Meas_PMT16A,,PR_Meas_QMR101_102,,RH_Meas_QMH101,,SR_Meas_QMS101,,TA_Meas_QMH101,,GenWind,,GenWind,
date,time,status,PA,status,PR,status,RH,status,SR,status,TA,status,DirAvg,status,SpdAvg,
2011-05-06, 00:00:04,VALID,1004.84,VALID,0,INVALID,163.639,VALID,0,VALID,25.6116,VALID,86,VALID,0.148438,
2011-05-06, 00:01:04,VALID,1004.85,VALID,0,INVALID,163.647,VALID,0,VALID,25.5902,VALID,85,VALID,0.399219,
2011-05-06, 00:02:04,VALID,1004.82,VALID,0,INVALID,163.624,VALID,0,VALID,25.5707,VALID,83,VALID,0.290234,
2011-05-06, 00:03:04,VALID,1004.81,VALID,0,INVALID,163.639,VALID,0,VALID,25.5921,VALID,83,VALID,0.261328,
2011-05-06, 00:04:04,VALID,1004.79,VALID,0,INVALID,163.632,VALID,0,VALID,25.5513,VALID,83,VALID,0.285156,
2011-05-06, 00:05:04,VALID,1004.77,VALID,0,INVALID,163.601,VALID,0,VALID,25.5318,VALID,48,VALID,0.395703,
2011-05-06, 00:06:04,VALID,1004.78,VALID,0,INVALID,163.662,VALID,0,VALID,25.5318,VALID,48,VALID,0.353516,
2011-05-06, 00:07:04,VALID,1004.77,VALID,0,INVALID,163.617,VALID,0,VALID,25.4948,VALID,48,VALID,0.263281,
2011-05-06, 00:08:04,VALID,1004.76,VALID,0,INVALID,163.662,VALID,0,VALID,25.4753,VALID,48,VALID,0.280859,
2011-05-06, 00:09:04,VALID,1004.76,VALID,0,INVALID,163.655,VALID,0,VALID,25.4363,VALID,48,VALID,0.294141,
2011-05-06, 00:10:04,VALID,1004.77,VALID,0,INVALID,163.632,VALID,0,VALID,25.4169,VALID,45,VALID,0.233203,
2011-05-06, 00:11:04,VALID,1004.76,VALID,0,INVALID,163.639,VALID,0,VALID,25.4169,VALID,45,VALID,0.307031,
2011-05-06, 00:12:04,VALID,1004.77,VALID,0,INVALID,163.647,VALID,0,VALID,25.4577,VALID,45,VALID,0.173047,
2011-05-06, 00:13:04,VALID,1004.73,VALID,0,INVALID,163.632,VALID,0,VALID,25.4558,VALID,45,VALID,0.301562,
2011-05-06, 00:14:04,VALID,1004.72,VALID,0,INVALID,163.617,VALID,0,VALID,25.4734,VALID,46,VALID,0.567187,
2011-05-06, 00:15:04,VALID,1004.71,VALID,0,INVALID,163.647,VALID,0,VALID,25.5142,VALID,47,VALID,0.276172,
2011-05-06, 00:16:04,VALID,1004.69,VALID,0,INVALID,163.655,VALID,0,VALID,25.5142,VALID,47,VALID,0.161328,
2011-05-06, 00:17:04,VALID,1004.69,VALID,0,INVALID,163.617,VALID,0,VALID,25.4928,VALID,48,VALID,0.408984,
2011-05-06, 00:18:04,VALID,1004.68,VALID,0,INVALID,163.647,VALID,0,VALID,25.4928,VALID,69,VALID,1.02656,
2011-05-06, 00:19:04,VALID,1004.68,VALID,0,INVALID,163.647,VALID,0,VALID,25.5532,VALID,64,VALID,0.167578,
2011-05-06, 00:20:04,VALID,1004.64,VALID,0,INVALID,163.624,VALID,0,VALID,25.5337,VALID,77,VALID,0.246875,
2011-05-06, 00:21:04,VALID,1004.62,VALID,0,INVALID,163.617,VALID,0,VALID,25.5337,VALID,36,VALID,0.38125,
2011-05-06, 00:22:04,VALID,1004.63,VALID,0,INVALID,163.639,VALID,0,VALID,25.5123,VALID,36,VALID,0.308594,
2011-05-06, 00:23:04,VALID,1004.63,VALID,0,INVALID,163.639,VALID,0,VALID,25.5123,VALID,36,VALID,0.344141,
2011-05-06, 00:24:04,VALID,1004.6,VALID,0,INVALID,163.655,VALID,0,VALID,25.5337,VALID,33,VALID,0.277344,
2011-05-06, 00:25:04,VALID,1004.6,VALID,0,INVALID,163.639,VALID,0,VALID,25.5532,VALID,41,VALID,0.236328,
2011-05-06, 00:26:04,VALID,1004.57,VALID,0,INVALID,163.617,VALID,0,VALID,25.5337,VALID,44,VALID,0.210156,
2011-05-06, 00:27:04,VALID,1004.57,VALID,0,INVALID,163.617,VALID,0,VALID,25.5142,VALID,44,VALID,0.471875,
2011-05-06, 00:28:04,VALID,1004.52,VALID,0,INVALID,163.624,VALID,0,VALID,25.5532,VALID,77,VALID,0.337109,
2011-05-06, 00:29:04,VALID,1004.52,VALID,0,INVALID,163.617,VALID,0,VALID,25.5337,VALID,77,VALID,0,
2011-05-06, 00:30:04,VALID,1004.5,VALID,0,INVALID,163.639,VALID,0,VALID,25.5532,VALID,39,VALID,0.799219,
2011-05-06, 00:31:04,VALID,1004.49,VALID,0,INVALID,163.624,VALID,0,VALID,25.5513,VALID,66,VALID,0.438672,
2011-05-06, 00:32:04,VALID,1004.47,VALID,0,INVALID,163.639,VALID,0,VALID,25.5902,VALID,65,VALID,0.324609,
2011-05-06, 00:33:04,VALID,1004.46,VALID,0,INVALID,163.632,VALID,0,VALID,25.6116,VALID,65,VALID,0.233594,
2011-05-06, 00:34:04,VALID,1004.45,VALID,0,INVALID,163.617,VALID,0,VALID,25.5707,VALID,65,VALID,0.248828,
2011-05-06, 00:35:04,VALID,1004.42,VALID,0,INVALID,163.632,VALID,0,VALID,25.5921,VALID,62,VALID,0.325781,
2011-05-06, 00:36:04,VALID,1004.42,VALID,0,INVALID,163.624,VALID,0,VALID,25.5513,VALID,54,VALID,0.321484,
2011-05-06, 00:37:04,VALID,1004.4,VALID,0,INVALID,163.601,VALID,0,VALID,25.5532,VALID,51,VALID,0.330859,
2011-05-06, 00:38:04,VALID,1004.42,VALID,0,INVALID,163.639,VALID,0,VALID,25.4734,VALID,48,VALID,0.385547,
2011-05-06, 00:39:04,VALID,1004.4,VALID,0,INVALID,163.624,VALID,0,VALID,25.4558,VALID,48,VALID,0.361328,
2011-05-06, 00:40:04,VALID,1004.45,VALID,0,INVALID,163.67,VALID,0,VALID,25.3974,VALID,48,VALID,0.512891,
2011-05-06, 00:41:04,VALID,1004.4,VALID,0,INVALID,163.647,VALID,0,VALID,25.339,VALID,48,VALID,0.180859,
2011-05-06, 00:42:04,VALID,1004.37,VALID,0,INVALID,163.67,VALID,0,VALID,25.2806,VALID,35,VALID,0.564844,
2011-05-06, 00:43:04,VALID,1004.34,VALID,0,INVALID,163.639,VALID,0,VALID,25.2611,VALID,21,VALID,0.423438,
2011-05-06, 00:44:04,VALID,1004.32,VALID,0,INVALID,163.639,VALID,0,VALID,25.1599,VALID,21,VALID,0.151562,
2011-05-06, 00:45:04,VALID,1004.32,VALID,0,INVALID,163.632,VALID,0,VALID,25.1618,VALID,21,VALID,0.373828,
2011-05-06, 00:46:04,VALID,1004.31,VALID,0,INVALID,163.678,VALID,0,VALID,25.1832,VALID,28,VALID,0.316797,
2011-05-06, 00:47:04,VALID,1004.28,VALID,0,INVALID,163.67,VALID,0,VALID,25.1813,VALID,88,VALID,0.432813,
2011-05-06, 00:48:04,VALID,1004.28,VALID,0,INVALID,163.655,VALID,0,VALID,25.2221,VALID,88,VALID,0.078125,
2011-05-06, 00:49:04,VALID,1004.29,VALID,0,INVALID,163.662,VALID,0,VALID,25.2416,VALID,88,VALID,0.409375,
2011-05-06, 00:50:04,VALID,1004.26,VALID,0,INVALID,163.662,VALID,0,VALID,25.263,VALID,88,VALID,0.0949219,
2011-05-06, 00:51:04,VALID,1004.25,VALID,0,INVALID,163.647,VALID,0,VALID,25.2221,VALID,88,VALID,0.361328,
2011-05-06, 00:52:04,VALID,1004.23,VALID,0,INVALID,163.632,VALID,0,VALID,25.2221,VALID,88,VALID,0.239063,
2011-05-06, 00:53:04,VALID,1004.24,VALID,0,INVALID,163.678,VALID,0,VALID,25.2027,VALID,89,VALID,0.25625,
2011-05-06, 00:54:04,VALID,1004.22,VALID,0,INVALID,163.632,VALID,0,VALID,25.1813,VALID,89,VALID,0.242969,
2011-05-06, 00:55:04,VALID,1004.2,VALID,0,INVALID,163.67,VALID,0,VALID,25.1832,VALID,89,VALID,0.25,
2011-05-06, 00:56:04,VALID,1004.18,VALID,0,INVALID,163.624,VALID,0,VALID,25.1442,VALID,70,VALID,0.396875,
2011-05-06, 00:57:04,VALID,1004.16,VALID,0,INVALID,163.678,VALID,0,VALID,25.1053,VALID,70,VALID,0.345313,
2011-05-06, 00:58:04,VALID,1004.16,VALID,0,INVALID,163.662,VALID,0,VALID,25.0839,VALID,51,VALID,0.503906,
2011-05-06, 00:59:04,VALID,1004.12,VALID,0,INVALID,163.67,VALID,0,VALID,25.0644,VALID,51,VALID,0.232031,
2011-05-06, 01:00:04,VALID,1004.12,VALID,0,INVALID,163.685,VALID,0,VALID,25.0663,VALID,51,VALID,0.0558594,
2011-05-06, 01:01:04,VALID,1004.1,VALID,0,INVALID,163.655,VALID,0,VALID,25.006,VALID,51,VALID,0,
2011-05-06, 01:02:04,VALID,1004.09,VALID,0,INVALID,163.685,VALID,0,VALID,24.9866,VALID,51,VALID,0.00507812,
2011-05-06, 01:03:04,VALID,1004.09,VALID,0,INVALID,163.662,VALID,0,VALID,24.9885,VALID,51,VALID,0,
2011-05-06, 01:04:04,VALID,1004.07,VALID,0,INVALID,163.662,VALID,0,VALID,24.9476,VALID,51,VALID,0.222656,
2011-05-06, 01:05:04,VALID,1004.05,VALID,0,INVALID,163.678,VALID,0,VALID,24.9476,VALID,51,VALID,0.167578,
2011-05-06, 01:06:04,VALID,1004.03,VALID,0,INVALID,163.701,VALID,0,VALID,24.9087,VALID,51,VALID,0.283594,
2011-05-06, 01:07:04,VALID,1004.02,VALID,0,INVALID,163.67,VALID,0,VALID,24.8911,VALID,51,VALID,0.261719,
2011-05-06, 01:08:04,VALID,1004.04,VALID,0,INVALID,163.701,VALID,0,VALID,24.8716,VALID,51,VALID,0.403125,
2011-05-06, 01:09:04,VALID,1004,VALID,0,INVALID,163.685,VALID,0.100563,VALID,24.8113,VALID,51,VALID,0.442187,
2011-05-06, 01:10:04,VALID,1003.98,VALID,0,INVALID,163.708,VALID,0,VALID,24.7724,VALID,51,VALID,0.280469,
2011-05-06, 01:11:04,VALID,1003.95,VALID,0,INVALID,163.693,VALID,0.100563,VALID,24.7335,VALID,51,VALID,0.364062,
2011-05-06, 01:12:04,VALID,1003.95,VALID,0,INVALID,163.708,VALID,0,VALID,24.7548,VALID,51,VALID,0.130469,
2011-05-06, 01:13:04,VALID,1003.94,VALID,0,INVALID,163.708,VALID,0,VALID,24.7353,VALID,51,VALID,0.152734,
2011-05-06, 01:14:04,VALID,1003.96,VALID,0,INVALID,163.701,VALID,0,VALID,24.7159,VALID,51,VALID,0.180469,
2011-05-06, 01:15:04,VALID,1003.95,VALID,0,INVALID,163.693,VALID,0.100563,VALID,24.675,VALID,51,VALID,0.090625,
2011-05-06, 01:16:04,VALID,1003.93,VALID,0,INVALID,163.701,VALID,0,VALID,24.6964,VALID,51,VALID,0.0105469,
2011-05-06, 01:17:04,VALID,1003.92,VALID,0,INVALID,163.678,VALID,0.100563,VALID,24.6769,VALID,51,VALID,0,
2011-05-06, 01:18:04,VALID,1003.89,VALID,0,INVALID,163.678,VALID,0.100563,VALID,24.6361,VALID,51,VALID,0.00234375,
2011-05-06, 01:19:04,VALID,1003.89,VALID,0,INVALID,163.701,VALID,0.100563,VALID,24.6574,VALID,81,VALID,0.474609,
2011-05-06, 01:20:04,VALID,1003.87,VALID,0,INVALID,163.693,VALID,0,VALID,24.6361,VALID,81,VALID,0.409375,
2011-05-06, 01:21:04,VALID,1003.85,VALID,0,INVALID,163.701,VALID,0.100563,VALID,24.6361,VALID,81,VALID,0.275,
2011-05-06, 01:22:04,VALID,1003.85,VALID,0,INVALID,163.708,VALID,0.100563,VALID,24.6574,VALID,81,VALID,0.269922,
2011-05-06, 01:23:04,VALID,1003.83,VALID,0,INVALID,163.708,VALID,0,VALID,24.6361,VALID,81,VALID,0.214062,
2011-05-06, 01:24:04,VALID,1003.82,VALID,0,INVALID,163.678,VALID,0,VALID,24.638,VALID,81,VALID,0.290625,
2011-05-06, 01:25:04,VALID,1003.79,VALID,0,INVALID,163.685,VALID,0,VALID,24.6185,VALID,81,VALID,0.209375,
2011-05-06, 01:26:04,VALID,1003.79,VALID,0,INVALID,163.685,VALID,0,VALID,24.6185,VALID,81,VALID,0.430469,
2011-05-06, 01:27:04,VALID,1003.78,VALID,0,INVALID,163.701,VALID,0,VALID,24.5972,VALID,61,VALID,0.638672,
2011-05-06, 01:28:04,VALID,1003.73,VALID,0,INVALID,163.716,VALID,0,VALID,24.5582,VALID,44,VALID,0.633203,
2011-05-06, 01:29:04,VALID,1003.75,VALID,0,INVALID,163.716,VALID,0,VALID,24.5388,VALID,39,VALID,0.507422,
2011-05-06, 01:30:04,VALID,1003.72,VALID,0,INVALID,163.708,VALID,0,VALID,24.5582,VALID,39,VALID,0.441797,
2011-05-06, 01:31:04,VALID,1003.68,VALID,0,INVALID,163.716,VALID,0,VALID,24.5406,VALID,39,VALID,0.518359,
2011-05-06, 01:32:04,VALID,1003.68,VALID,0,INVALID,163.693,VALID,0.100563,VALID,24.5406,VALID,39,VALID,0.387891,
2011-05-06, 01:33:04,VALID,1003.66,VALID,0,INVALID,163.731,VALID,0,VALID,24.5212,VALID,39,VALID,0.392578,
2011-05-06, 01:34:04,VALID,1003.69,VALID,0,INVALID,163.693,VALID,0,VALID,24.4998,VALID,39,VALID,0.336328,
2011-05-06, 01:35:04,VALID,1003.67,VALID,0,INVALID,163.685,VALID,0.100563,VALID,24.4804,VALID,39,VALID,0.342187,
2011-05-06, 01:36:04,VALID,1003.65,VALID,0,INVALID,163.716,VALID,0,VALID,24.5017,VALID,39,VALID,0.269531,
2011-05-06, 01:37:04,VALID,1003.65,VALID,0,INVALID,163.723,VALID,0,VALID,24.4609,VALID,39,VALID,0.189063,
2011-05-06, 01:38:04,VALID,1003.64,VALID,0,INVALID,163.678,VALID,0,VALID,24.4628,VALID,39,VALID,0.395312,
2011-05-06, 01:39:04,VALID,1003.61,VALID,0,INVALID,163.685,VALID,0,VALID,24.4414,VALID,39,VALID,0.336719,
2011-05-06, 01:40:04,VALID,1003.61,VALID,0,INVALID,163.723,VALID,0,VALID,24.422,VALID,39,VALID,0.341016,
2011-05-06, 01:41:04,VALID,1003.59,VALID,0,INVALID,163.716,VALID,0,VALID,24.422,VALID,39,VALID,0.138281,
2011-05-06, 01:42:04,VALID,1003.58,VALID,0,INVALID,163.716,VALID,0,VALID,24.4025,VALID,39,VALID,0.0257812,
2011-05-06, 01:43:04,VALID,1003.57,VALID,0,INVALID,163.723,VALID,0,VALID,24.422,VALID,39,VALID,0.293359,
2011-05-06, 01:44:04,VALID,1003.55,VALID,0,INVALID,163.723,VALID,0.100563,VALID,24.422,VALID,39,VALID,0.196484,
2011-05-06, 01:45:04,VALID,1003.53,VALID,0,INVALID,163.731,VALID,0.100563,VALID,24.422,VALID,39,VALID,0.271094,
2011-05-06, 01:46:04,VALID,1003.52,VALID,0,INVALID,163.723,VALID,0,VALID,24.4025,VALID,39,VALID,0.327734,
2011-05-06, 01:47:04,VALID,1003.48,VALID,0,INVALID,163.716,VALID,0,VALID,24.4238,VALID,39,VALID,0.336328,
2011-05-06, 01:48:04,VALID,1003.46,VALID,0,INVALID,163.723,VALID,0,VALID,24.4025,VALID,39,VALID,0.260156,
2011-05-06, 01:49:04,VALID,1003.46,VALID,0,INVALID,163.723,VALID,0,VALID,24.3812,VALID,39,VALID,0.340625,
2011-05-06, 01:50:04,VALID,1003.45,VALID,0,INVALID,163.716,VALID,0.100563,VALID,24.383,VALID,39,VALID,0.26875,
2011-05-06, 01:51:04,VALID,1003.44,VALID,0,INVALID,163.701,VALID,0.100563,VALID,24.383,VALID,39,VALID,0.248828,
2011-05-06, 01:52:04,VALID,1003.43,VALID,0,INVALID,163.716,VALID,0.100563,VALID,24.383,VALID,39,VALID,0.230469,
2011-05-06, 01:53:04,VALID,1003.42,VALID,0,INVALID,163.708,VALID,0,VALID,24.383,VALID,39,VALID,0.0523437,
2011-05-06, 01:54:04,VALID,1003.42,VALID,0,INVALID,163.731,VALID,0.100563,VALID,24.3636,VALID,39,VALID,0,
2011-05-06, 01:55:04,VALID,1003.41,VALID,0,INVALID,163.701,VALID,0.100563,VALID,24.383,VALID,39,VALID,0,
2011-05-06, 01:56:04,VALID,1003.41,VALID,0,INVALID,163.701,VALID,0.100563,VALID,24.3636,VALID,39,VALID,0.0140625,
2011-05-06, 01:57:04,VALID,1003.38,VALID,0,INVALID,163.716,VALID,0.100563,VALID,24.383,VALID,39,VALID,0.0917969,
2011-05-06, 01:58:04,VALID,1003.39,VALID,0,INVALID,163.716,VALID,0,VALID,24.3849,VALID,39,VALID,0.317578,
2011-05-06, 01:59:04,VALID,1003.38,VALID,0,INVALID,163.739,VALID,0,VALID,24.3636,VALID,39,VALID,0.232812,
2011-05-06, 02:00:04,VALID,1003.35,VALID,0,INVALID,163.723,VALID,0.100563,VALID,24.3636,VALID,39,VALID,0.505469,
2011-05-06, 02:01:04,VALID,1003.36,VALID,0,INVALID,163.723,VALID,0,VALID,24.3422,VALID,39,VALID,0.303516,
2011-05-06, 02:02:04,VALID,1003.33,VALID,0,INVALID,163.723,VALID,0,VALID,24.3654,VALID,39,VALID,0.276172,
2011-05-06, 02:03:04,VALID,1003.33,VALID,0,INVALID,163.746,VALID,0,VALID,24.3636,VALID,39,VALID,0.317187,
2011-05-06, 02:04:04,VALID,1003.28,VALID,0,INVALID,163.739,VALID,0,VALID,24.383,VALID,39,VALID,0.225,
2011-05-06, 02:05:04,VALID,1003.3,VALID,0,INVALID,163.723,VALID,0,VALID,24.383,VALID,39,VALID,0,
2011-05-06, 02:06:04,VALID,1003.27,VALID,0,INVALID,163.739,VALID,0,VALID,24.3636,VALID,39,VALID,0,
2011-05-06, 02:07:04,VALID,1003.27,VALID,0,INVALID,163.701,VALID,0,VALID,24.4043,VALID,39,VALID,0,
2011-05-06, 02:08:04,VALID,1003.26,VALID,0,INVALID,163.708,VALID,0,VALID,24.4238,VALID,39,VALID,0,
2011-05-06, 02:09:04,VALID,1003.24,VALID,0,INVALID,163.723,VALID,0,VALID,24.4025,VALID,39,VALID,0,
2011-05-06, 02:10:04,VALID,1003.2,VALID,0,INVALID,163.708,VALID,0,VALID,24.4025,VALID,39,VALID,0.0710938,
2011-05-06, 02:11:04,VALID,1003.21,VALID,0,INVALID,163.723,VALID,0,VALID,24.4025,VALID,39,VALID,0.144141,
2011-05-06, 02:12:04,VALID,1003.23,VALID,0,INVALID,163.723,VALID,0,VALID,24.4025,VALID,39,VALID,0.0835937,
2011-05-06, 02:13:04,VALID,1003.22,VALID,0,INVALID,163.731,VALID,0,VALID,24.383,VALID,39,VALID,0.110547,
2011-05-06, 02:14:04,VALID,1003.19,VALID,0,INVALID,163.723,VALID,0,VALID,24.4043,VALID,39,VALID,0,
2011-05-06, 02:15:04,VALID,1003.21,VALID,0,INVALID,163.708,VALID,0,VALID,24.4025,VALID,39,VALID,0,
2011-05-06, 02:16:04,VALID,1003.21,VALID,0,INVALID,163.723,VALID,0,VALID,24.4025,VALID,39,VALID,0,
2011-05-06, 02:17:04,VALID,1003.2,VALID,0,INVALID,163.708,VALID,0.100563,VALID,24.4025,VALID,39,VALID,0.122656,
2011-05-06, 02:18:04,VALID,1003.21,VALID,0,INVALID,163.708,VALID,0,VALID,24.4025,VALID,39,VALID,0.253906,
2011-05-06, 02:19:04,VALID,1003.21,VALID,0,INVALID,163.701,VALID,0,VALID,24.4238,VALID,39,VALID,0.377734,
2011-05-06, 02:20:05,VALID,1003.2,VALID,0,INVALID,163.723,VALID,0,VALID,24.4025,VALID,39,VALID,0.00195313,
2011-05-06, 02:21:05,VALID,1003.2,VALID,0,INVALID,163.716,VALID,0,VALID,24.4238,VALID,39,VALID,0.163281,
2011-05-06, 02:22:05,VALID,1003.22,VALID,0,INVALID,163.716,VALID,0,VALID,24.4238,VALID,39,VALID,0.228516,
2011-05-06, 02:23:05,VALID,1003.23,VALID,0,INVALID,163.685,VALID,0,VALID,24.4025,VALID,39,VALID,0.0496094,
2011-05-06, 02:24:05,VALID,1003.23,VALID,0,INVALID,163.701,VALID,0,VALID,24.4025,VALID,39,VALID,0.00117188,
2011-05-06, 02:25:05,VALID,1003.23,VALID,0,INVALID,163.708,VALID,0,VALID,24.4628,VALID,39,VALID,0.323047,
2011-05-06, 02:26:05,VALID,1003.23,VALID,0,INVALID,163.723,VALID,0,VALID,24.4609,VALID,39,VALID,0.226172,
2011-05-06, 02:27:05,VALID,1003.23,VALID,0,INVALID,163.708,VALID,0,VALID,24.4609,VALID,39,VALID,0.145313,
2011-05-06, 02:28:05,VALID,1003.22,VALID,0,INVALID,163.701,VALID,0,VALID,24.4822,VALID,39,VALID,0.0199219,
2011-05-06, 02:29:05,VALID,1003.2,VALID,0,INVALID,163.685,VALID,0,VALID,24.4804,VALID,39,VALID,0.0507813,
2011-05-06, 02:30:05,VALID,1003.23,VALID,0,INVALID,163.716,VALID,0,VALID,24.4998,VALID,39,VALID,0.0742188,
2011-05-06, 02:31:05,VALID,1003.22,VALID,0,INVALID,163.708,VALID,0.100563,VALID,24.4998,VALID,39,VALID,0,
2011-05-06, 02:32:05,VALID,1003.22,VALID,0,INVALID,163.701,VALID,0,VALID,24.4998,VALID,88,VALID,0.545313,
2011-05-06, 02:33:05,VALID,1003.2,VALID,0,INVALID,163.716,VALID,0,VALID,24.5193,VALID,88,VALID,0.307813,
2011-05-06, 02:34:05,VALID,1003.21,VALID,0,INVALID,163.693,VALID,0,VALID,24.5388,VALID,90,VALID,0.571875,
2011-05-06, 02:35:05,VALID,1003.19,VALID,0,INVALID,163.67,VALID,0.100563,VALID,24.5388,VALID,89,VALID,0.209375,
2011-05-06, 02:36:05,VALID,1003.18,VALID,0,INVALID,163.762,VALID,0,VALID,24.5777,VALID,89,VALID,0.04375,
2011-05-06, 02:37:05,VALID,1003.17,VALID,0,INVALID,163.693,VALID,0,VALID,24.5582,VALID,88,VALID,0.342578,
2011-05-06, 02:38:05,VALID,1003.18,VALID,0,INVALID,163.693,VALID,0,VALID,24.6185,VALID,87,VALID,0.416797,
2011-05-06, 02:39:05,VALID,1003.15,VALID,0,INVALID,163.678,VALID,0,VALID,24.5972,VALID,87,VALID,0.226953,
2011-05-06, 02:40:05,VALID,1003.14,VALID,0,INVALID,163.701,VALID,0,VALID,24.6166,VALID,87,VALID,0,
2011-05-06, 02:41:05,VALID,1003.17,VALID,0,INVALID,163.693,VALID,0,VALID,24.6361,VALID,87,VALID,0.367969,
2011-05-06, 02:42:05,VALID,1003.16,VALID,0,INVALID,163.701,VALID,0,VALID,24.6574,VALID,87,VALID,0.228516,
2011-05-06, 02:43:05,VALID,1003.13,VALID,0,INVALID,163.67,VALID,0,VALID,24.6574,VALID,87,VALID,0.0539063,
2011-05-06, 02:44:05,VALID,1003.13,VALID,0,INVALID,163.685,VALID,0,VALID,24.6574,VALID,87,VALID,0.362891,
2011-05-06, 02:45:05,VALID,1003.1,VALID,0,INVALID,163.693,VALID,0,VALID,24.6556,VALID,86,VALID,0.500781,
2011-05-06, 02:46:05,VALID,1003.09,VALID,0,INVALID,163.701,VALID,0,VALID,24.7159,VALID,77,VALID,0.315234,
2011-05-06, 02:47:05,VALID,1003.04,VALID,0,INVALID,163.685,VALID,0,VALID,24.6945,VALID,77,VALID,0.308594,
2011-05-06, 02:48:05,VALID,1003.06,VALID,0,INVALID,163.701,VALID,0,VALID,24.7159,VALID,77,VALID,0.49375,
2011-05-06, 02:49:05,VALID,1003.04,VALID,0,INVALID,163.716,VALID,0,VALID,24.7159,VALID,77,VALID,0.158203,
2011-05-06, 02:50:05,VALID,1003.05,VALID,0,INVALID,163.678,VALID,0,VALID,24.675,VALID,77,VALID,0.0707031,
2011-05-06, 02:51:05,VALID,1003.03,VALID,0,INVALID,163.701,VALID,0,VALID,24.7159,VALID,77,VALID,0.144141,
2011-05-06, 02:52:05,VALID,1003.01,VALID,0,INVALID,163.716,VALID,0,VALID,24.7159,VALID,77,VALID,0.201562,
2011-05-06, 02:53:05,VALID,1003.03,VALID,0,INVALID,163.693,VALID,0,VALID,24.6945,VALID,77,VALID,0.41875,
2011-05-06, 02:54:05,VALID,1003.02,VALID,0,INVALID,163.716,VALID,0,VALID,24.7159,VALID,77,VALID,0.392969,
2011-05-06, 02:55:05,VALID,1003.01,VALID,0,INVALID,163.708,VALID,0,VALID,24.675,VALID,77,VALID,0.207813,
2011-05-06, 02:56:05,VALID,1003.01,VALID,0,INVALID,163.685,VALID,0,VALID,24.6964,VALID,77,VALID,0.314453,
2011-05-06, 02:57:05,VALID,1003.02,VALID,0,INVALID,163.708,VALID,0,VALID,24.714,VALID,77,VALID,0.571484,
2011-05-06, 02:58:05,VALID,1003.03,VALID,0,INVALID,163.708,VALID,0,VALID,24.714,VALID,77,VALID,0.633203,
2011-05-06, 02:59:05,VALID,1003.02,VALID,0,INVALID,163.701,VALID,0,VALID,24.7548,VALID,77,VALID,0.413672,
2011-05-06, 03:00:05,VALID,1003.06,VALID,0,INVALID,163.701,VALID,0,VALID,24.7529,VALID,87,VALID,0.510938,
2011-05-06, 03:01:05,VALID,1003.04,VALID,0,INVALID,163.685,VALID,0,VALID,24.7529,VALID,87,VALID,0.471875,
2011-05-06, 03:02:05,VALID,1003.06,VALID,0,INVALID,163.685,VALID,0,VALID,24.7919,VALID,86,VALID,0.134766,
2011-05-06, 03:03:05,VALID,1003.06,VALID,0,INVALID,163.685,VALID,0,VALID,24.8113,VALID,84,VALID,0.701563,
2011-05-06, 03:04:05,VALID,1003.06,VALID,0,INVALID,163.647,VALID,0,VALID,24.8892,VALID,89,VALID,0.528125,
2011-05-06, 03:05:05,VALID,1003.05,VALID,0,INVALID,163.701,VALID,0,VALID,24.8873,VALID,87,VALID,0.401563,
2011-05-06, 03:06:05,VALID,1003.08,VALID,0,INVALID,163.678,VALID,0,VALID,24.9476,VALID,86,VALID,0.303125,
2011-05-06, 03:07:05,VALID,1003.06,VALID,0,INVALID,163.685,VALID,0,VALID,24.9866,VALID,57,VALID,0.135937,
2011-05-06, 03:08:05,VALID,1003.06,VALID,0,INVALID,163.655,VALID,0,VALID,25.0274,VALID,59,VALID,0.402344,
2011-05-06, 03:09:05,VALID,1003.05,VALID,0,INVALID,163.639,VALID,0,VALID,25.0236,VALID,62,VALID,0.107422,
2011-05-06, 03:10:05,VALID,1003.06,VALID,0,INVALID,163.685,VALID,0,VALID,25.0644,VALID,90,VALID,0.708984,
2011-05-06, 03:11:05,VALID,1003.03,VALID,0,INVALID,163.647,VALID,0,VALID,25.1034,VALID,42,VALID,0.648438,
2011-05-06, 03:12:05,VALID,1003.03,VALID,0,INVALID,163.678,VALID,0,VALID,25.1618,VALID,81,VALID,0.557422,
2011-05-06, 03:13:05,VALID,1003.05,VALID,0,INVALID,163.662,VALID,0,VALID,25.2007,VALID,68,VALID,0.616016,
2011-05-06, 03:14:05,VALID,1003.06,VALID,0,INVALID,163.655,VALID,0,VALID,25.2611,VALID,61,VALID,0.252344,
2011-05-06, 03:15:05,VALID,1003.04,VALID,0,INVALID,163.639,VALID,0,VALID,25.2806,VALID,88,VALID,1.03906,
2011-05-06, 03:16:05,VALID,1003.03,VALID,0,INVALID,163.647,VALID,0,VALID,25.2786,VALID,80,VALID,0.580078,
2011-05-06, 03:17:05,VALID,1003.04,VALID,0,INVALID,163.678,VALID,0.100563,VALID,25.3176,VALID,76,VALID,0.397656,
2011-05-06, 03:18:05,VALID,1003.01,VALID,0,INVALID,163.67,VALID,0,VALID,25.3565,VALID,64,VALID,0.463281,
2011-05-06, 03:19:05,VALID,1003.01,VALID,0,INVALID,163.647,VALID,0,VALID,25.3974,VALID,94,VALID,0.698438,
2011-05-06, 03:20:05,VALID,1003.03,VALID,0,INVALID,163.624,VALID,0,VALID,25.3955,VALID,76,VALID,0.164453,
2011-05-06, 03:21:05,VALID,1003.01,VALID,0,INVALID,163.655,VALID,0,VALID,25.3935,VALID,30,VALID,0.510547,
2011-05-06, 03:22:05,VALID,1002.98,VALID,0,INVALID,163.632,VALID,0,VALID,25.4363,VALID,75,VALID,0.384375,
2011-05-06, 03:23:05,VALID,1002.95,VALID,0,INVALID,163.632,VALID,0,VALID,25.3955,VALID,52,VALID,0.520312,
2011-05-06, 03:24:05,VALID,1002.97,VALID,0,INVALID,163.655,VALID,0,VALID,25.4363,VALID,63,VALID,0.391797,
2011-05-06, 03:25:05,VALID,1002.96,VALID,0,INVALID,163.639,VALID,0,VALID,25.3955,VALID,26,VALID,0.6875,
2011-05-06, 03:26:05,VALID,1002.94,VALID,0,INVALID,163.678,VALID,0,VALID,25.376,VALID,26,VALID,0.136719,
2011-05-06, 03:27:05,VALID,1002.92,VALID,0,INVALID,163.639,VALID,0,VALID,25.3779,VALID,63,VALID,0.411719,
2011-05-06, 03:28:05,VALID,1002.94,VALID,0,INVALID,163.647,VALID,0,VALID,25.3779,VALID,76,VALID,0.342187,
2011-05-06, 03:29:05,VALID,1002.94,VALID,0,INVALID,163.647,VALID,0,VALID,25.3565,VALID,43,VALID,0.360547,
2011-05-06, 03:30:05,VALID,1002.94,VALID,0,INVALID,163.655,VALID,0,VALID,25.376,VALID,31,VALID,0.544922,
2011-05-06, 03:31:05,VALID,1002.95,VALID,0,INVALID,163.655,VALID,0,VALID,25.376,VALID,25,VALID,0.0648438,
2011-05-06, 03:32:05,VALID,1002.97,VALID,0,INVALID,163.624,VALID,0,VALID,25.376,VALID,25,VALID,0.146875,
2011-05-06, 03:33:05,VALID,1002.95,VALID,0,INVALID,163.647,VALID,0,VALID,25.3974,VALID,25,VALID,0.0929687,
2011-05-06, 03:34:05,VALID,1002.95,VALID,0,INVALID,163.632,VALID,0,VALID,25.3565,VALID,53,VALID,0.705078,
2011-05-06, 03:35:05,VALID,1002.98,VALID,0,INVALID,163.655,VALID,0,VALID,25.3565,VALID,54,VALID,0.304297,
2011-05-06, 03:36:05,VALID,1002.98,VALID,0,INVALID,163.655,VALID,0,VALID,25.3974,VALID,54,VALID,0.472266,
2011-05-06, 03:37:05,VALID,1002.97,VALID,0,INVALID,163.639,VALID,0,VALID,25.376,VALID,54,VALID,0.0664063,
2011-05-06, 03:38:05,VALID,1002.95,VALID,0,INVALID,163.639,VALID,0,VALID,25.3565,VALID,54,VALID,0.248828,
2011-05-06, 03:39:05,VALID,1002.95,VALID,0,INVALID,163.647,VALID,0,VALID,25.3779,VALID,54,VALID,0.296484,
2011-05-06, 03:40:05,VALID,1002.94,VALID,0,INVALID,163.639,VALID,0,VALID,25.339,VALID,58,VALID,0.203125,
2011-05-06, 03:41:05,VALID,1002.94,VALID,0,INVALID,163.662,VALID,0,VALID,25.3176,VALID,75,VALID,0.201562,